Weather History for Branson, MO

Change the Weather History Date:

Thursday, November 22, 2012

  Actual Average (KHRO) Record (KHRO)
Temperature  
Mean Temperature 58 °F 46 °F  
Max Temperature 66 °F 56 °F 81 °F (1900)
Min Temperature 50 °F 36 °F 10 °F (1964)
Degree Days  
Heating Degree Days 7 19  
Month to date heating degree days 330  
Since 1 July heating degree days 595  
Cooling Degree Days 0 0  
Month to date cooling degree days 0  
Year to date cooling degree days 1412  
Growing Degree Days 8 (Base 50)    
Moisture  
Dew Point 43 °F    
Average Humidity 62    
Maximum Humidity 88    
Minimum Humidity 40    
Precipitation  
Precipitation 0.00 in 0.13 in 1.67 in (1982)
Month to date precipitation 3.18  
Year to date precipitation 39.89  
Snow  
Snow 0.00 in 0.00 in 1.00 in (1971)
Month to date snowfall 0.0  
Since 1 July snowfall 0.1  
Since 1 September snowfall 0.1  
Snow Depth -    
Sea Level Pressure  
Sea Level Pressure 30.09 in    
Wind  
Wind Speed 8 mph (South)    
Max Wind Speed 20 mph    
Max Gust Speed 29 mph    
Visibility 10 miles    
Events Rain , Thunderstorm    
T = Trace of Precipitation, MM = Missing Value Source: NWS Daily Summary

Daily Weather History Graph

Daily Weather History Graph

Search for Another Location

Airport:

Trip Planner

Search our weather history database for the weather conditions in past years. The results will help you decide how hot, cold, wet, or windy it might be!

Date:

Astronomy

Nov. 22, 2012 Rise Set
Actual Time 6:58 AM CST 4:59 PM CST
Civil Twilight 6:30 AM CST 5:27 PM CST
Nautical Twilight 5:58 AM CST 5:59 PM CST
Astronomical Twilight 5:27 AM CST 6:30 PM CST
Moon 1:38 PM CST (11/22) 1:26 AM CST (11/22)
Length of Visible Light 10h 57m
Length of Day
10h 01m
Waxing Gibbous, 71% of the Moon is Illuminated
Nov 22
Waxing Gibbous
Nov 28
Full
Dec 6
Last Quarter
Dec 13
New
Dec 19
First Quarter

Hourly Weather History & Observations

Time (CST) Temp. Dew Point Humidity Pressure Visibility Wind Dir Wind Speed Gust Speed Precip Events Conditions
12:15 AM 53.6 °F 35.6 °F 51% 30.14 in 10.0 mi SSE 6.9 mph - N/A   Clear
12:35 AM 51.8 °F 37.4 °F 58% 30.14 in 10.0 mi SSE 5.8 mph - N/A   Clear
12:55 AM 53.6 °F 37.4 °F 54% 30.13 in 10.0 mi SSE 6.9 mph - N/A   Clear
1:15 AM 51.8 °F 37.4 °F 58% 30.13 in 10.0 mi SSE 8.1 mph - N/A   Clear
1:35 AM 53.6 °F 37.4 °F 54% 30.13 in 10.0 mi SSE 9.2 mph - N/A   Clear
1:55 AM 53.6 °F 37.4 °F 54% 30.12 in 10.0 mi SSE 9.2 mph - N/A   Clear
2:15 AM 53.6 °F 37.4 °F 54% 30.12 in 10.0 mi SSE 9.2 mph - N/A   Clear
2:35 AM 51.8 °F 39.2 °F 62% 30.11 in 10.0 mi SSE 10.4 mph - N/A   Clear
2:55 AM 53.6 °F 37.4 °F 54% 30.11 in 10.0 mi SSE 8.1 mph - N/A   Clear
3:15 AM 51.8 °F 39.2 °F 62% 30.10 in 10.0 mi SSE 10.4 mph - N/A   Clear
3:35 AM 51.8 °F 39.2 °F 62% 30.10 in 10.0 mi SSE 9.2 mph - N/A   Partly Cloudy
3:55 AM 51.8 °F 39.2 °F 62% 30.10 in 10.0 mi SSE 9.2 mph - N/A   Mostly Cloudy
4:15 AM 50.0 °F 39.2 °F 66% 30.10 in 10.0 mi SSE 10.4 mph - N/A   Mostly Cloudy
4:35 AM 51.8 °F 37.4 °F 58% 30.10 in 10.0 mi SSE 9.2 mph - N/A   Scattered Clouds
4:55 AM 51.8 °F 37.4 °F 58% 30.10 in 10.0 mi SSE 8.1 mph - N/A   Scattered Clouds
5:15 AM 51.8 °F 37.4 °F 58% 30.09 in 10.0 mi SSE 6.9 mph - N/A   Scattered Clouds
7:51 AM 53.6 °F 37.4 °F 54% 30.10 in 10.0 mi SSE 8.1 mph - N/A   Mostly Cloudy
8:45 AM 55.4 °F 37.4 °F 51% 30.11 in 10.0 mi South 6.9 mph - N/A   Mostly Cloudy
9:47 AM 57.2 °F 39.2 °F 51% 30.11 in 10.0 mi South 9.2 mph - N/A   Mostly Cloudy
10:50 AM 64.4 °F 39.2 °F 40% 30.09 in 10.0 mi South 19.6 mph - N/A   Overcast
11:45 AM 66.2 °F 41.0 °F 40% 30.08 in 10.0 mi SSW 13.8 mph - N/A   Overcast
12:45 PM 66.2 °F 41.0 °F 40% 30.05 in 10.0 mi South 13.8 mph 28.8 mph N/A   Overcast
1:50 PM 64.4 °F 41.0 °F 42% 30.02 in 10.0 mi South 11.5 mph - N/A   Overcast
2:52 PM 64.4 °F 42.8 °F 45% 30.02 in 10.0 mi South 9.2 mph - N/A   Overcast
3:45 PM 64.4 °F 42.8 °F 45% 30.02 in 10.0 mi South 5.8 mph - N/A   Overcast
4:45 PM 62.6 °F 46.4 °F 55% 30.02 in 10.0 mi South 5.8 mph - N/A Rain Light Rain
5:45 PM 62.6 °F 44.6 °F 52% 30.03 in 10.0 mi South 5.8 mph - N/A   Overcast
6:45 PM 59.0 °F 46.4 °F 63% 30.02 in 10.0 mi South 8.1 mph - N/A Rain Light Rain
6:56 PM 59.0 °F 48.2 °F 67% 30.04 in 7.0 mi WSW 4.6 mph - N/A Rain , Thunderstorm Light Thunderstorms and Rain
7:45 PM 55.4 °F 50.0 °F 82% 30.08 in 7.0 mi SW 3.5 mph - N/A Rain , Thunderstorm Light Thunderstorms and Rain
8:15 PM 55.4 °F 50.0 °F 82% 30.09 in 10.0 mi Calm Calm - N/A Thunderstorm Overcast
8:35 PM 55.4 °F 51.8 °F 88% 30.09 in 10.0 mi SSW 5.8 mph - N/A Thunderstorm Overcast
8:45 PM 55.4 °F 50.0 °F 82% 30.09 in 10.0 mi SSW 5.8 mph - N/A   Overcast
8:55 PM 57.2 °F 50.0 °F 77% 30.09 in 10.0 mi SSW 6.9 mph - N/A   Overcast
9:15 PM 57.2 °F 50.0 °F 77% 30.09 in 10.0 mi SSW 6.9 mph - N/A   Overcast
9:35 PM 57.2 °F 50.0 °F 77% 30.10 in 10.0 mi SW 8.1 mph - N/A   Overcast
9:55 PM 57.2 °F 50.0 °F 77% 30.10 in 10.0 mi SW 8.1 mph - N/A   Overcast
10:15 PM 57.2 °F 50.0 °F 77% 30.10 in 10.0 mi SW 8.1 mph - N/A   Overcast
10:35 PM 57.2 °F 50.0 °F 77% 30.10 in 10.0 mi West 5.8 mph - N/A   Overcast
10:55 PM 55.4 °F 50.0 °F 82% 30.12 in 10.0 mi WSW 5.8 mph - N/A   Mostly Cloudy
11:15 PM 55.4 °F 50.0 °F 82% 30.14 in 10.0 mi WNW 6.9 mph - N/A   Overcast
11:35 PM 57.2 °F 50.0 °F 77% 30.14 in 10.0 mi WNW 6.9 mph - N/A   Overcast
11:55 PM 57.2 °F 50.0 °F 77% 30.16 in 10.0 mi NW 13.8 mph 18.4 mph N/A   Overcast